FW2477 Weather Reports


time (UTC)temp
F
wind
direction
speed
knots
gust
knots
rain 1hr
in
rain 24hr
in
rain mn
in
humidity
%
barometer
mb
20260505052505 74 293 2.6 8.7 0.00 0.00 0.00 36 1008.1
20260505051506 75 306 3.5 13.9 0.00 0.00 0.00 36 1007.9
20260505050505 75 310 4.3 13.9 0.00 0.00 0.00 35 1007.9
20260505041505 76 309 2.6 9.6 0.00 0.00 0.00 33 1007.3
20260505041005 76 308 3.5 13.9 0.00 0.00 0.00 33 1007.3
20260505040505 76 306 3.5 13.9 0.00 0.00 0.00 33 1007.1
20260505040006 77 304 3.5 10.4 0.00 0.00 0.00 33 1007.2
20260505035005 77 290 2.6 9.6 0.00 0.00 0.00 32 1007.1
20260505034505 77 287 2.6 10.4 0.00 0.00 0.00 32 1006.9
20260505033005 78 295 2.6 10.4 0.00 0.00 0.00 32 1006.8
20260505032504 78 300 2.6 9.6 0.00 0.00 0.00 31 1006.5
20260505032006 78 310 2.6 9.6 0.00 0.00 0.00 31 1006.7
20260505031506 79 320 3.5 9.6 0.00 0.00 0.00 30 1006.6
20260505031005 79 318 2.6 8.7 0.00 0.00 0.00 30 1006.5
20260505030505 80 309 2.6 8.7 0.00 0.00 0.00 30 1006.5
20260505030005 80 307 2.6 13.0 0.00 0.00 0.00 29 1006.4
20260505025504 80 298 2.6 13.0 0.00 0.00 0.00 29 1006.3
20260505025005 80 304 3.5 11.3 0.00 0.00 0.00 29 1006.3
20260505024506 81 316 3.5 12.2 0.00 0.00 0.00 28 1006.3
20260505024005 81 308 3.5 12.2 0.00 0.00 0.00 28 1006.3
20260505023505 82 297 2.6 8.7 0.00 0.00 0.00 28 1006.2
20260505023005 82 294 2.6 8.7 0.00 0.00 0.00 27 1006.2
20260505022505 82 291 2.6 9.6 0.00 0.00 0.00 27 1006.3
20260505021506 84 288 3.5 8.7 0.00 0.00 0.00 26 1006.1
20260505020505 84 296 2.6 8.7 0.00 0.00 0.00 25 1006.3
20260505020005 84 315 2.6 10.4 0.00 0.00 0.00 25 1006.2
20260505015505 84 310 3.5 10.4 0.00 0.00 0.00 24 1006.2
20260505014505 85 293 2.6 9.6 0.00 0.00 0.00 24 1006.1
20260505014004 85 262 1.7 7.0 0.00 0.00 0.00 25 1006.1
20260505013005 86 256 2.6 7.0 0.00 0.00 0.00 25 1006.2
20260505012504 86 259 2.6 8.7 0.00 0.00 0.00 24 1006.2
20260505012005 87 273 1.7 8.7 0.00 0.00 0.00 23 1006.3
20260505011504 88 263 0.9 3.5 0.00 0.00 0.00 24 1006.3
20260505010005 87 193 0.9 4.3 0.00 0.00 0.00 24 1006.4
20260505005506 87 193 0.9 3.5 0.00 0.00 0.00 24 1006.4
20260505004504 87 214 0.0 1.7 0.00 0.00 0.00 23 1006.4
20260505004005 87 216 0.0 1.7 0.00 0.00 0.00 24 1006.4
20260505003504 87 216 0.9 2.6 0.00 0.00 0.00 23 1006.5
20260505003005 86 201 0.9 3.5 0.00 0.00 0.00 24 1006.5
20260505001505 87 83 0.9 3.5 0.00 0.00 0.00 24 1006.5
20260505001006 87 95 0.9 2.6 0.00 0.00 0.00 23 1006.4
20260505000504 87 78 0.0 2.6 0.00 0.00 0.00 23 1006.5
20260504235504 87 238 0.9 1.7 0.00 0.00 0.00 23 1006.4
20260504235005 87 244 0.9 1.7 0.00 0.00 0.00 22 1006.5
20260504234004 87 230 0.9 3.5 0.00 0.00 0.00 23 1006.5
20260504233505 87 224 0.9 3.5 0.00 0.00 0.00 23 1006.5
20260504233004 87 241 0.9 4.3 0.00 0.00 0.00 23 1006.5
20260504232505 88 243 1.7 4.3 0.00 0.00 0.00 23 1006.7
20260504232004 88 257 0.9 2.6 0.00 0.00 0.00 24 1006.6
20260504231505 87 313 0.9 3.5 0.00 0.00 0.00 24 1006.6
20260504231004 87 66 1.7 5.2 0.00 0.00 0.00 24 1006.7
20260504230504 87 89 1.7 5.2 0.00 0.00 0.00 22 1006.7
20260504230005 87 229 0.9 3.5 0.00 0.00 0.00 22 1006.8
20260504225504 88 264 0.9 3.5 0.00 0.00 0.00 23 1006.8
20260504224504 88 93 0.9 4.3 0.00 0.00 0.00 22 1007.0
20260504223505 88 164 1.7 4.3 0.00 0.00 0.00 23 1006.9
20260504223005 87 185 0.9 4.3 0.00 0.00 0.00 23 1007.0
20260504222504 86 61 2.6 6.1 0.00 0.00 0.00 24 1007.1
20260504222004 86 59 3.5 6.1 0.00 0.00 0.00 22 1007.2
20260504221505 87 60 0.9 5.2 0.00 0.00 0.00 22 1007.3
20260504221004 87 75 0.9 2.6 0.00 0.00 0.00 23 1007.3
20260504220504 87 68 0.9 5.2 0.00 0.00 0.00 22 1007.4
20260504220004 87 60 1.7 5.2 0.00 0.00 0.00 22 1007.5
20260504215504 87 61 1.7 4.3 0.00 0.00 0.00 23 1007.6
20260504215005 88 104 1.7 4.3 0.00 0.00 0.00 21 1007.7
20260504214504 91 204 1.7 5.2 0.00 0.00 0.00 20 1007.7
20260504214005 90 203 2.6 7.8 0.00 0.00 0.00 21 1007.8
20260504213504 90 201 1.7 7.8 0.00 0.00 0.00 21 1007.8
20260504213005 89 315 0.9 2.6 0.00 0.00 0.00 22 1008.0
20260504212505 87 328 0.9 2.6 0.00 0.00 0.00 21 1008.0
20260504212004 88 288 0.9 4.3 0.00 0.00 0.00 22 1008.1
20260504211505 90 195 0.9 5.2 0.00 0.00 0.00 21 1008.1
20260504211005 91 174 0.9 5.2 0.00 0.00 0.00 20 1008.2
20260504210504 91 186 1.7 6.1 0.00 0.00 0.00 21 1008.3
20260504210005 90 218 1.7 6.1 0.00 0.00 0.00 22 1008.3
20260504205504 89 257 0.9 4.3 0.00 0.00 0.00 22 1008.3
20260504205004 90 250 0.9 4.3 0.00 0.00 0.00 21 1008.3
20260504204004 90 196 1.7 7.8 0.00 0.00 0.00 24 1008.4
20260504203004 89 201 1.7 8.7 0.00 0.00 0.00 23 1008.5
20260504202004 88 225 0.9 4.3 0.00 0.00 0.00 23 1008.7
20260504201505 90 221 0.9 4.3 0.00 0.00 0.00 20 1008.8
20260504201004 89 229 1.7 3.5 0.00 0.00 0.00 22 1008.8
20260504200504 87 194 1.7 6.1 0.00 0.00 0.00 22 1008.8
20260504200004 86 72 1.7 6.1 0.00 0.00 0.00 22 1008.9
20260504195003 86 58 0.9 1.7 0.00 0.00 0.00 24 1009.0
20260504194504 86 62 0.9 3.5 0.00 0.00 0.00 23 1009.0
20260504194004 86 36 0.9 3.5 0.00 0.00 0.00 24 1009.1
20260504193505 88 249 0.9 2.6 0.00 0.00 0.00 21 1009.2
20260504193005 90 234 0.9 2.6 0.00 0.00 0.00 22 1009.3
20260504192504 89 224 1.7 6.1 0.00 0.00 0.00 23 1009.4
20260504192004 88 208 0.9 6.1 0.00 0.00 0.00 22 1009.4
20260504191505 89 172 0.9 3.5 0.00 0.00 0.00 24 1009.5
20260504191004 87 232 0.9 2.6 0.00 0.00 0.00 23 1009.6
20260504190504 86 224 0.9 3.5 0.00 0.00 0.00 24 1009.6
20260504190004 87 220 0.9 3.5 0.00 0.00 0.00 24 1009.7
20260504184504 87 238 0.9 2.6 0.00 0.00 0.00 22 1009.8
20260504184004 88 210 1.7 5.2 0.00 0.00 0.00 24 1009.9
20260504183503 86 203 1.7 5.2 0.00 0.00 0.00 24 1009.9
20260504183004 86 190 0.0 2.6 0.00 0.00 0.00 24 1009.9
20260504182503 83 285 0.9 3.5 0.00 0.00 0.00 25 1009.9
20260504182004 82 344 1.7 4.3 0.00 0.00 0.00 26 1009.9
20260504181504 82 22 0.9 4.3 0.00 0.00 0.00 26 1010.0
20260504181004 83 343 0.0 2.6 0.00 0.00 0.00 28 1010.0
20260504180504 82 26 0.0 1.7 0.00 0.00 0.00 29 1010.0
20260504180004 81 13 0.9 4.3 0.00 0.00 0.00 30 1010.0
20260504175004 80 79 0.9 4.3 0.00 0.00 0.00 30 1010.1
20260504174504 79 20 0.9 4.3 0.00 0.00 0.00 30 1010.1
20260504173504 79 352 0.9 2.6 0.00 0.00 0.00 32 1010.1
20260504173004 78 350 0.9 3.5 0.00 0.00 0.00 31 1010.1
20260504172504 77 336 0.9 3.5 0.00 0.00 0.00 34 1010.2
20260504172003 77 326 1.7 4.3 0.00 0.00 0.00 32 1010.2
20260504171504 76 342 0.9 4.3 0.00 0.00 0.00 32 1010.3
20260504170504 75 5 1.7 5.2 0.00 0.00 0.00 31 1010.3
20260504150506 65 319 2.6 5.2 0.00 0.00 0.00 42 1010.7
20260504140506 60 298 0.0 0.9 0.00 0.00 0.00 60 1010.5
20260504130506 55 0 0.0 0.0 0.00 0.00 0.00 62 1010.0
20260504110506 58 200 0.0 0.9 0.00 0.00 0.00 57 1010.0
20260504100505 55 276 0.0 0.9 0.00 0.00 0.00 68 1009.9
20260504082005 59 297 0.0 0.9 0.00 0.00 0.00 62 1009.7
20260504081506 60 298 0.0 0.9 0.00 0.00 0.00 62 1009.7